Time,TemperatureF,DewpointF,PressureIn,WindDirection,WindDirectionDegrees,WindSpeedMPH,WindSpeedGustMPH,Humidity,HourlyPrecipIn,Conditions,Clouds,dailyrainin,SoftwareType,DateUTC
2013-06-09 00:02:00,69.3,57.5,29.85,SSE,164,7.0,7.0,66,0.00,,,0.00,Wunderground v.1.15,2013-06-09 05:02:00,
2013-06-09 00:08:00,69.4,57.1,29.85,SSE,163,7.0,11.0,65,0.00,,,0.00,Wunderground v.1.15,2013-06-09 05:08:00,
2013-06-09 00:13:00,69.2,57.4,29.85,SSE,165,7.0,7.0,66,0.00,,,0.00,Wunderground v.1.15,2013-06-09 05:13:00,
2013-06-09 00:18:00,69.0,57.2,29.86,SW,231,6.0,9.0,66,0.00,,,0.00,Wunderground v.1.15,2013-06-09 05:18:00,
2013-06-09 00:24:00,68.7,57.3,29.86,South,169,7.0,11.0,67,0.00,,,0.00,Wunderground v.1.15,2013-06-09 05:24:00,
2013-06-09 00:29:00,68.5,57.1,29.86,South,184,6.0,11.0,67,0.00,,,0.00,Wunderground v.1.15,2013-06-09 05:29:00,
2013-06-09 00:34:00,68.3,57.3,29.85,South,176,6.0,9.0,68,0.00,,,0.00,Wunderground v.1.15,2013-06-09 05:34:00,
2013-06-09 00:40:00,68.3,57.3,29.85,SSW,200,7.0,7.0,68,0.00,,,0.00,Wunderground v.1.15,2013-06-09 05:40:00,
2013-06-09 00:45:00,68.5,57.1,29.85,SE,134,7.0,9.0,67,0.00,,,0.00,Wunderground v.1.15,2013-06-09 05:45:00,
2013-06-09 00:51:00,68.5,57.1,29.85,SSE,161,6.0,6.0,67,0.00,,,0.00,Wunderground v.1.15,2013-06-09 05:51:00,
2013-06-09 00:57:00,68.5,57.1,29.85,SW,221,5.0,9.0,67,0.00,,,0.00,Wunderground v.1.15,2013-06-09 05:57:00,
2013-06-09 01:02:00,68.4,57.0,29.85,South,191,5.0,10.0,67,0.00,,,0.00,Wunderground v.1.15,2013-06-09 06:02:00,
2013-06-09 01:08:00,68.4,57.0,29.85,South,179,6.0,10.0,67,0.00,,,0.00,Wunderground v.1.15,2013-06-09 06:08:00,
2013-06-09 01:13:00,68.4,57.0,29.85,South,187,6.0,8.0,67,0.00,,,0.00,Wunderground v.1.15,2013-06-09 06:13:00,
2013-06-09 01:19:00,68.1,57.1,29.84,SSE,160,5.0,8.0,68,0.00,,,0.00,Wunderground v.1.15,2013-06-09 06:19:00,
2013-06-09 01:25:00,68.1,57.1,29.84,South,178,4.0,9.0,68,0.00,,,0.00,Wunderground v.1.15,2013-06-09 06:25:00,
2013-06-09 01:30:00,68.2,57.2,29.84,South,171,5.0,5.0,68,0.00,,,0.00,Wunderground v.1.15,2013-06-09 06:30:00,
2013-06-09 01:35:00,68.1,57.1,29.85,South,173,5.0,7.0,68,0.00,,,0.00,Wunderground v.1.15,2013-06-09 06:35:00,
2013-06-09 01:41:00,68.0,57.0,29.84,SSE,163,5.0,5.0,68,0.00,,,0.00,Wunderground v.1.15,2013-06-09 06:41:00,
2013-06-09 01:46:00,67.9,56.9,29.84,South,180,5.0,6.0,68,0.00,,,0.00,Wunderground v.1.15,2013-06-09 06:46:00,
2013-06-09 01:52:00,67.9,56.9,29.84,SW,220,5.0,6.0,68,0.00,,,0.00,Wunderground v.1.15,2013-06-09 06:52:00,
2013-06-09 01:57:00,67.9,56.9,29.84,South,185,5.0,7.0,68,0.00,,,0.00,Wunderground v.1.15,2013-06-09 06:57:00,
2013-06-09 02:03:00,67.7,56.8,29.84,South,171,5.0,5.0,68,0.00,,,0.00,Wunderground v.1.15,2013-06-09 07:03:00,
2013-06-09 02:08:00,67.7,57.2,29.84,SSW,204,4.0,6.0,69,0.00,,,0.00,Wunderground v.1.15,2013-06-09 07:08:00,
2013-06-09 02:13:00,67.9,56.9,29.83,South,182,5.0,7.0,68,0.00,,,0.00,Wunderground v.1.15,2013-06-09 07:13:00,
2013-06-09 02:19:00,67.8,56.9,29.84,SSE,161,5.0,7.0,68,0.00,,,0.00,Wunderground v.1.15,2013-06-09 07:19:00,
2013-06-09 02:24:00,67.7,57.2,29.84,SSW,213,5.0,6.0,69,0.00,,,0.00,Wunderground v.1.15,2013-06-09 07:24:00,
2013-06-09 02:29:00,67.6,57.1,29.83,South,182,5.0,7.0,69,0.00,,,0.00,Wunderground v.1.15,2013-06-09 07:29:00,
2013-06-09 02:35:00,67.6,57.1,29.83,SSW,207,5.0,8.0,69,0.00,,,0.00,Wunderground v.1.15,2013-06-09 07:35:00,
2013-06-09 02:40:00,67.6,57.1,29.83,South,188,5.0,5.0,69,0.00,,,0.00,Wunderground v.1.15,2013-06-09 07:40:00,
2013-06-09 02:46:00,67.6,57.1,29.83,SW,236,5.0,8.0,69,0.00,,,0.00,Wunderground v.1.15,2013-06-09 07:46:00,
2013-06-09 02:51:00,67.7,57.2,29.83,South,175,6.0,6.0,69,0.00,,,0.00,Wunderground v.1.15,2013-06-09 07:51:00,
2013-06-09 02:56:00,67.8,57.3,29.82,South,180,6.0,7.0,69,0.00,,,0.00,Wunderground v.1.15,2013-06-09 07:56:00,
2013-06-09 03:01:00,67.7,57.2,29.82,South,175,5.0,6.0,69,0.00,,,0.00,Wunderground v.1.15,2013-06-09 08:01:00,
2013-06-09 03:06:00,67.8,57.3,29.82,South,171,5.0,7.0,69,0.00,,,0.00,Wunderground v.1.15,2013-06-09 08:06:00,
2013-06-09 03:12:00,68.0,57.4,29.81,WSW,240,6.0,7.0,69,0.00,,,0.00,Wunderground v.1.15,2013-06-09 08:12:00,
2013-06-09 03:17:00,68.3,57.7,29.82,South,172,7.0,8.0,69,0.00,,,0.00,Wunderground v.1.15,2013-06-09 08:17:00,
2013-06-09 03:22:00,68.3,57.7,29.81,SSE,168,7.0,7.0,69,0.00,,,0.00,Wunderground v.1.15,2013-06-09 08:22:00,
2013-06-09 03:27:00,68.4,57.8,29.81,South,181,7.0,8.0,69,0.00,,,0.00,Wunderground v.1.15,2013-06-09 08:27:00,
2013-06-09 03:33:00,68.8,57.8,29.81,South,179,7.0,12.0,68,0.00,,,0.00,Wunderground v.1.15,2013-06-09 08:33:00,
2013-06-09 03:38:00,68.9,57.9,29.81,South,184,8.0,12.0,68,0.00,,,0.00,Wunderground v.1.15,2013-06-09 08:38:00,
2013-06-09 03:44:00,69.0,58.0,29.80,South,171,7.0,8.0,68,0.00,,,0.00,Wunderground v.1.15,2013-06-09 08:44:00,
2013-06-09 03:49:00,68.9,57.9,29.80,SSE,167,7.0,10.0,68,0.00,,,0.00,Wunderground v.1.15,2013-06-09 08:49:00,
2013-06-09 03:54:00,68.7,57.7,29.80,SE,145,6.0,10.0,68,0.00,,,0.00,Wunderground v.1.15,2013-06-09 08:54:00,
2013-06-09 04:00:00,68.3,57.7,29.80,South,187,6.0,8.0,69,0.00,,,0.00,Wunderground v.1.15,2013-06-09 09:00:00,
2013-06-09 04:06:00,68.1,57.9,29.80,SSE,159,6.0,8.0,70,0.00,,,0.00,Wunderground v.1.15,2013-06-09 09:06:00,
2013-06-09 04:11:00,68.0,57.8,29.80,South,184,5.0,5.0,70,0.00,,,0.00,Wunderground v.1.15,2013-06-09 09:11:00,
2013-06-09 04:17:00,67.7,58.0,29.81,South,169,4.0,7.0,71,0.00,,,0.00,Wunderground v.1.15,2013-06-09 09:17:00,
2013-06-09 04:22:00,67.5,57.8,29.81,SSW,207,3.0,5.0,71,0.00,,,0.00,Wunderground v.1.15,2013-06-09 09:22:00,
2013-06-09 04:28:00,67.1,57.8,29.81,SSE,153,4.0,5.0,72,0.00,,,0.00,Wunderground v.1.15,2013-06-09 09:28:00,
2013-06-09 04:33:00,66.9,58.0,29.80,SSE,149,3.0,4.0,73,0.00,,,0.00,Wunderground v.1.15,2013-06-09 09:33:00,
2013-06-09 04:38:00,67.0,58.1,29.80,SE,143,3.0,7.0,73,0.00,,,0.00,Wunderground v.1.15,2013-06-09 09:38:00,
2013-06-09 04:44:00,67.1,58.2,29.80,SE,144,4.0,5.0,73,0.00,,,0.00,Wunderground v.1.15,2013-06-09 09:44:00,
2013-06-09 04:49:00,67.0,58.4,29.80,SSE,154,5.0,8.0,74,0.00,,,0.00,Wunderground v.1.15,2013-06-09 09:49:00,
2013-06-09 04:54:00,66.7,58.9,29.80,SE,143,6.0,10.0,76,0.00,,,0.00,Wunderground v.1.15,2013-06-09 09:54:00,
2013-06-09 04:59:00,66.7,58.9,29.80,SE,128,7.0,13.0,76,0.00,,,0.00,Wunderground v.1.15,2013-06-09 09:59:00,
2013-06-09 05:05:00,66.7,59.3,29.81,South,171,7.0,9.0,77,0.00,,,0.00,Wunderground v.1.15,2013-06-09 10:05:00,
2013-06-09 05:11:00,66.6,59.2,29.81,South,171,3.0,4.0,77,0.00,,,0.00,Wunderground v.1.15,2013-06-09 10:11:00,
2013-06-09 05:17:00,66.4,59.7,29.82,SSW,197,1.0,4.0,79,0.00,,,0.00,Wunderground v.1.15,2013-06-09 10:17:00,
2013-06-09 05:22:00,65.9,59.2,29.82,SW,217,0.0,0.0,79,0.00,,,0.00,Wunderground v.1.15,2013-06-09 10:22:00,
2013-06-09 05:28:00,65.7,59.0,29.82,SW,217,0.0,0.0,79,0.00,,,0.00,Wunderground v.1.15,2013-06-09 10:28:00,
2013-06-09 05:33:00,65.6,58.9,29.81,SW,217,0.0,0.0,79,0.00,,,0.00,Wunderground v.1.15,2013-06-09 10:33:00,
2013-06-09 05:39:00,66.1,59.0,29.81,SSW,207,0.0,3.0,78,0.00,,,0.00,Wunderground v.1.15,2013-06-09 10:39:00,
2013-06-09 05:44:00,66.3,59.2,29.81,SSE,152,2.0,6.0,78,0.00,,,0.00,Wunderground v.1.15,2013-06-09 10:44:00,
2013-06-09 05:49:00,66.5,59.4,29.81,SE,144,4.0,6.0,78,0.00,,,0.00,Wunderground v.1.15,2013-06-09 10:49:00,
2013-06-09 05:54:00,66.4,59.3,29.81,SSE,147,2.0,4.0,78,0.00,,,0.00,Wunderground v.1.15,2013-06-09 10:54:00,
2013-06-09 06:00:00,66.6,59.9,29.81,SSE,162,2.0,4.0,79,0.00,,,0.00,Wunderground v.1.15,2013-06-09 11:00:00,
2013-06-09 06:05:00,66.9,59.8,29.81,SSE,162,3.0,5.0,78,0.00,,,0.00,Wunderground v.1.15,2013-06-09 11:05:00,
2013-06-09 06:11:00,66.8,60.1,29.81,SSE,151,3.0,4.0,79,0.00,,,0.00,Wunderground v.1.15,2013-06-09 11:11:00,
2013-06-09 06:16:00,66.9,60.2,29.80,SE,130,3.0,4.0,79,0.00,,,0.00,Wunderground v.1.15,2013-06-09 11:16:00,
2013-06-09 06:22:00,66.9,60.2,29.80,South,173,3.0,4.0,79,0.00,,,0.00,Wunderground v.1.15,2013-06-09 11:22:00,
2013-06-09 06:27:00,67.0,60.3,29.80,SSE,148,4.0,6.0,79,0.00,,,0.00,Wunderground v.1.15,2013-06-09 11:27:00,
2013-06-09 06:32:00,67.0,60.6,29.80,SE,146,3.0,4.0,80,0.00,,,0.00,Wunderground v.1.15,2013-06-09 11:32:00,
2013-06-09 06:37:00,67.3,60.9,29.80,SSE,150,4.0,8.0,80,0.00,,,0.00,Wunderground v.1.15,2013-06-09 11:37:00,
2013-06-09 06:43:00,67.5,60.8,29.80,SSW,193,5.0,7.0,79,0.00,,,0.00,Wunderground v.1.15,2013-06-09 11:43:00,
2013-06-09 06:49:00,67.6,61.2,29.80,SSE,165,6.0,8.0,80,0.00,,,0.00,Wunderground v.1.15,2013-06-09 11:49:00,
2013-06-09 06:55:00,67.4,61.0,29.80,SSE,162,4.0,6.0,80,0.00,,,0.00,Wunderground v.1.15,2013-06-09 11:55:00,
2013-06-09 07:00:00,67.0,61.0,29.80,SSE,147,3.0,5.0,81,0.00,,,0.00,Wunderground v.1.15,2013-06-09 12:00:00,
2013-06-09 07:05:00,66.7,61.0,29.80,SSW,212,3.0,5.0,82,0.00,,,0.00,Wunderground v.1.15,2013-06-09 12:05:00,
2013-06-09 07:11:00,66.7,61.0,29.80,South,186,4.0,5.0,82,0.00,,,0.00,Wunderground v.1.15,2013-06-09 12:11:00,
2013-06-09 07:16:00,66.7,61.0,29.80,South,178,5.0,8.0,82,0.00,,,0.00,Wunderground v.1.15,2013-06-09 12:16:00,
2013-06-09 07:22:00,66.8,61.5,29.80,SW,219,5.0,6.0,83,0.00,,,0.00,Wunderground v.1.15,2013-06-09 12:22:00,
2013-06-09 07:27:00,66.7,61.4,29.80,South,186,4.0,7.0,83,0.00,,,0.00,Wunderground v.1.15,2013-06-09 12:27:00,
2013-06-09 07:32:00,66.5,61.2,29.80,South,187,2.0,3.0,83,0.00,,,0.00,Wunderground v.1.15,2013-06-09 12:32:00,
2013-06-09 07:38:00,66.2,60.9,29.81,South,187,0.0,3.0,83,0.00,,,0.00,Wunderground v.1.15,2013-06-09 12:38:00,
2013-06-09 07:43:00,66.2,61.2,29.81,South,187,0.0,0.0,84,0.00,,,0.00,Wunderground v.1.15,2013-06-09 12:43:00,
2013-06-09 07:49:00,66.4,61.8,29.81,South,187,1.0,3.0,85,0.00,,,0.01,Wunderground v.1.15,2013-06-09 12:49:00,
2013-06-09 07:55:00,67.0,62.3,29.81,SSE,168,2.0,4.0,85,0.00,,,0.01,Wunderground v.1.15,2013-06-09 12:55:00,
2013-06-09 08:01:00,67.1,62.4,29.82,SSE,165,2.0,2.0,85,0.05,,,0.02,Wunderground v.1.15,2013-06-09 13:01:00,
2013-06-09 08:07:00,67.0,62.3,29.82,SSE,155,2.0,2.0,85,0.06,,,0.03,Wunderground v.1.15,2013-06-09 13:07:00,
2013-06-09 08:12:00,66.8,62.5,29.81,SSE,151,1.0,3.0,86,0.14,,,0.04,Wunderground v.1.15,2013-06-09 13:12:00,
2013-06-09 08:17:00,66.6,62.6,29.81,SE,141,1.0,5.0,87,0.09,,,0.04,Wunderground v.1.15,2013-06-09 13:17:00,
2013-06-09 08:23:00,66.2,62.5,29.81,SE,137,3.0,6.0,88,0.05,,,0.05,Wunderground v.1.15,2013-06-09 13:23:00,
2013-06-09 08:28:00,66.1,62.8,29.81,ESE,114,2.0,6.0,89,0.05,,,0.05,Wunderground v.1.15,2013-06-09 13:28:00,
2013-06-09 08:34:00,66.1,63.1,29.80,ESE,109,2.0,5.0,90,0.05,,,0.05,Wunderground v.1.15,2013-06-09 13:34:00,
2013-06-09 08:39:00,66.1,63.1,29.80,ESE,111,4.0,5.0,90,0.00,,,0.05,Wunderground v.1.15,2013-06-09 13:39:00,
2013-06-09 08:45:00,66.2,63.2,29.80,SE,131,4.0,4.0,90,0.00,,,0.05,Wunderground v.1.15,2013-06-09 13:45:00,
2013-06-09 08:50:00,66.7,63.7,29.80,SE,140,3.0,3.0,90,0.00,,,0.05,Wunderground v.1.15,2013-06-09 13:50:00,
2013-06-09 08:55:00,66.8,63.8,29.80,SE,142,2.0,3.0,90,0.00,,,0.05,Wunderground v.1.15,2013-06-09 13:55:00,
2013-06-09 09:00:00,67.1,64.4,29.80,SE,142,1.0,1.0,91,0.00,,,0.05,Wunderground v.1.15,2013-06-09 14:00:00,
2013-06-09 09:06:00,67.3,64.6,29.80,SE,142,0.0,1.0,91,0.00,,,0.05,Wunderground v.1.15,2013-06-09 14:06:00,
2013-06-09 09:12:00,67.3,64.6,29.81,SE,142,0.0,0.0,91,0.00,,,0.05,Wunderground v.1.15,2013-06-09 14:12:00,
2013-06-09 09:17:00,67.1,64.4,29.81,WSW,257,0.0,2.0,91,0.00,,,0.05,Wunderground v.1.15,2013-06-09 14:17:00,
2013-06-09 09:23:00,67.0,64.3,29.81,WSW,257,0.0,0.0,91,0.00,,,0.05,Wunderground v.1.15,2013-06-09 14:23:00,
2013-06-09 09:28:00,66.8,64.1,29.81,WSW,257,0.0,0.0,91,0.00,,,0.05,Wunderground v.1.15,2013-06-09 14:28:00,
2013-06-09 09:34:00,66.5,64.1,29.81,WSW,257,0.0,0.0,92,0.00,,,0.05,Wunderground v.1.15,2013-06-09 14:34:00,
2013-06-09 09:39:00,66.1,63.7,29.81,West,273,1.0,3.0,92,0.00,,,0.05,Wunderground v.1.15,2013-06-09 14:39:00,
2013-06-09 09:44:00,66.0,63.6,29.81,SSE,159,1.0,2.0,92,0.00,,,0.05,Wunderground v.1.15,2013-06-09 14:44:00,
2013-06-09 09:50:00,66.2,63.8,29.81,SW,217,1.0,1.0,92,0.00,,,0.05,Wunderground v.1.15,2013-06-09 14:50:00,
2013-06-09 09:55:00,66.4,64.0,29.81,South,171,1.0,3.0,92,0.00,,,0.05,Wunderground v.1.15,2013-06-09 14:55:00,
2013-06-09 10:01:00,66.9,64.5,29.81,South,171,1.0,3.0,92,0.00,,,0.05,Wunderground v.1.15,2013-06-09 15:01:00,
2013-06-09 10:06:00,67.3,64.9,29.81,South,171,1.0,3.0,92,0.00,,,0.05,Wunderground v.1.15,2013-06-09 15:06:00,
2013-06-09 10:12:00,67.4,65.0,29.81,WNW,296,0.0,1.0,92,0.00,,,0.05,Wunderground v.1.15,2013-06-09 15:12:00,
2013-06-09 10:17:00,67.2,64.8,29.81,WNW,296,0.0,1.0,92,0.00,,,0.05,Wunderground v.1.15,2013-06-09 15:17:00,
2013-06-09 10:22:00,67.5,65.1,29.81,SSW,194,0.0,4.0,92,0.00,,,0.05,Wunderground v.1.15,2013-06-09 15:22:00,
2013-06-09 10:27:00,67.6,65.2,29.81,SSW,196,1.0,4.0,92,0.00,,,0.05,Wunderground v.1.15,2013-06-09 15:27:00,
2013-06-09 10:33:00,67.8,65.4,29.81,SSW,196,1.0,1.0,92,0.00,,,0.05,Wunderground v.1.15,2013-06-09 15:33:00,
2013-06-09 10:38:00,68.4,66.3,29.81,SSW,196,0.0,1.0,93,0.00,,,0.05,Wunderground v.1.15,2013-06-09 15:38:00,
2013-06-09 10:44:00,68.8,66.4,29.81,SSW,196,0.0,1.0,92,0.00,,,0.05,Wunderground v.1.15,2013-06-09 15:44:00,
2013-06-09 10:50:00,68.9,66.2,29.82,SSW,196,0.0,0.0,91,0.00,,,0.05,Wunderground v.1.15,2013-06-09 15:50:00,
2013-06-09 10:55:00,69.4,67.0,29.81,SSW,196,0.0,0.0,92,0.00,,,0.05,Wunderground v.1.15,2013-06-09 15:55:00,
2013-06-09 11:01:00,70.0,67.3,29.82,SSW,196,0.0,0.0,91,0.00,,,0.05,Wunderground v.1.15,2013-06-09 16:01:00,
2013-06-09 11:06:00,70.3,66.9,29.82,SSW,196,0.0,0.0,89,0.00,,,0.05,Wunderground v.1.15,2013-06-09 16:06:00,
2013-06-09 11:11:00,70.7,67.0,29.81,SSW,196,0.0,1.0,88,0.00,,,0.05,Wunderground v.1.15,2013-06-09 16:11:00,
2013-06-09 11:16:00,71.4,67.0,29.81,SSW,196,0.0,1.0,86,0.00,,,0.05,Wunderground v.1.15,2013-06-09 16:16:00,
2013-06-09 11:22:00,71.9,67.1,29.80,SSW,196,0.0,0.0,85,0.00,,,0.05,Wunderground v.1.15,2013-06-09 16:22:00,
2013-06-09 11:28:00,72.7,66.2,29.80,ESE,123,0.0,2.0,80,0.00,,,0.05,Wunderground v.1.15,2013-06-09 16:28:00,
2013-06-09 11:33:00,73.9,67.3,29.80,NNE,28,1.0,2.0,80,0.00,,,0.05,Wunderground v.1.15,2013-06-09 16:33:00,
2013-06-09 11:39:00,73.7,64.5,29.81,South,175,2.0,3.0,73,0.00,,,0.05,Wunderground v.1.15,2013-06-09 16:39:00,
2013-06-09 11:45:00,74.0,66.0,29.82,WNW,294,1.0,2.0,76,0.00,,,0.05,Wunderground v.1.15,2013-06-09 16:45:00,
2013-06-09 11:50:00,74.3,65.9,29.82,WNW,294,1.0,1.0,75,0.00,,,0.05,Wunderground v.1.15,2013-06-09 16:50:00,
2013-06-09 11:56:00,74.0,66.0,29.81,WNW,294,0.0,1.0,76,0.00,,,0.05,Wunderground v.1.15,2013-06-09 16:56:00,
2013-06-09 12:01:00,74.2,65.8,29.81,WNW,283,1.0,3.0,75,0.00,,,0.05,Wunderground v.1.15,2013-06-09 17:01:00,
2013-06-09 12:07:00,75.0,66.1,29.81,West,281,1.0,3.0,74,0.00,,,0.05,Wunderground v.1.15,2013-06-09 17:07:00,
2013-06-09 12:13:00,75.8,66.1,29.81,West,260,1.0,1.0,72,0.00,,,0.05,Wunderground v.1.15,2013-06-09 17:13:00,
2013-06-09 12:19:00,75.0,63.7,29.81,WNW,282,3.0,7.0,68,0.00,,,0.05,Wunderground v.1.15,2013-06-09 17:19:00,
2013-06-09 12:25:00,74.7,63.4,29.82,SW,217,5.0,5.0,68,0.00,,,0.05,Wunderground v.1.15,2013-06-09 17:25:00,
2013-06-09 12:30:00,74.3,63.5,29.82,WSW,246,6.0,7.0,69,0.00,,,0.05,Wunderground v.1.15,2013-06-09 17:30:00,
2013-06-09 12:36:00,74.6,63.8,29.82,West,277,6.0,8.0,69,0.00,,,0.05,Wunderground v.1.15,2013-06-09 17:36:00,
2013-06-09 12:41:00,74.4,64.0,29.82,West,271,5.0,5.0,70,0.00,,,0.05,Wunderground v.1.15,2013-06-09 17:41:00,
2013-06-09 12:47:00,74.5,64.1,29.82,SSW,197,3.0,6.0,70,0.00,,,0.05,Wunderground v.1.15,2013-06-09 17:47:00,
2013-06-09 12:53:00,74.1,64.1,29.82,SW,229,4.0,9.0,71,0.00,,,0.05,Wunderground v.1.15,2013-06-09 17:53:00,
2013-06-09 12:58:00,75.2,65.1,29.82,West,277,5.0,9.0,71,0.00,,,0.05,Wunderground v.1.15,2013-06-09 17:58:00,
2013-06-09 13:04:00,75.6,64.3,29.81,SSW,196,6.0,11.0,68,0.00,,,0.05,Wunderground v.1.15,2013-06-09 18:04:00,
2013-06-09 13:09:00,75.6,64.3,29.81,North,355,6.0,11.0,68,0.00,,,0.05,Wunderground v.1.15,2013-06-09 18:09:00,
2013-06-09 13:15:00,76.2,65.7,29.81,WNW,288,6.0,8.0,70,0.00,,,0.05,Wunderground v.1.15,2013-06-09 18:15:00,
2013-06-09 13:20:00,77.1,64.4,29.80,NNW,327,5.0,5.0,65,0.00,,,0.05,Wunderground v.1.15,2013-06-09 18:20:00,
2013-06-09 13:26:00,78.2,62.2,29.80,NNW,346,4.0,11.0,58,0.00,,,0.05,Wunderground v.1.15,2013-06-09 18:26:00,
2013-06-09 13:31:00,78.8,63.7,29.80,WNW,290,4.0,5.0,60,0.00,,,0.05,Wunderground v.1.15,2013-06-09 18:31:00,
2013-06-09 13:37:00,78.5,62.5,29.80,SW,229,4.0,7.0,58,0.00,,,0.05,Wunderground v.1.15,2013-06-09 18:37:00,
2013-06-09 13:43:00,79.3,63.7,29.80,WNW,296,4.0,6.0,59,0.00,,,0.05,Wunderground v.1.15,2013-06-09 18:43:00,
2013-06-09 13:48:00,79.2,63.6,29.80,WNW,295,5.0,10.0,59,0.00,,,0.05,Wunderground v.1.15,2013-06-09 18:48:00,
2013-06-09 13:53:00,79.1,64.0,29.80,WNW,293,5.0,8.0,60,0.00,,,0.05,Wunderground v.1.15,2013-06-09 18:53:00,
2013-06-09 13:59:00,79.0,63.4,29.80,West,281,5.0,10.0,59,0.00,,,0.05,Wunderground v.1.15,2013-06-09 18:59:00,
2013-06-09 14:04:00,79.0,63.4,29.80,WSW,247,5.0,6.0,59,0.00,,,0.05,Wunderground v.1.15,2013-06-09 19:04:00,
2013-06-09 14:09:00,79.5,61.9,29.79,NW,316,5.0,9.0,55,0.00,,,0.05,Wunderground v.1.15,2013-06-09 19:09:00,
2013-06-09 14:15:00,79.9,62.8,29.79,West,271,5.0,8.0,56,0.00,,,0.05,Wunderground v.1.15,2013-06-09 19:15:00,
2013-06-09 14:20:00,79.7,62.6,29.79,NNW,333,4.0,4.0,56,0.00,,,0.05,Wunderground v.1.15,2013-06-09 19:20:00,
2013-06-09 14:26:00,79.0,63.0,29.80,WNW,298,4.0,7.0,58,0.00,,,0.05,Wunderground v.1.15,2013-06-09 19:26:00,
2013-06-09 14:31:00,79.5,63.4,29.79,WSW,242,4.0,5.0,58,0.00,,,0.05,Wunderground v.1.15,2013-06-09 19:31:00,
2013-06-09 14:37:00,80.1,62.5,29.79,NW,308,5.0,11.0,55,0.00,,,0.05,Wunderground v.1.15,2013-06-09 19:37:00,
2013-06-09 14:42:00,80.1,60.9,29.79,West,266,6.0,13.0,52,0.00,,,0.05,Wunderground v.1.15,2013-06-09 19:42:00,
2013-06-09 14:48:00,80.0,62.9,29.79,NNW,327,5.0,13.0,56,0.00,,,0.05,Wunderground v.1.15,2013-06-09 19:48:00,
2013-06-09 14:53:00,80.7,62.0,29.79,NW,316,4.0,6.0,53,0.00,,,0.05,Wunderground v.1.15,2013-06-09 19:53:00,
2013-06-09 14:59:00,80.5,61.8,29.79,West,265,4.0,9.0,53,0.00,,,0.05,Wunderground v.1.15,2013-06-09 19:59:00,
2013-06-09 15:04:00,80.4,61.7,29.79,West,263,5.0,5.0,53,0.00,,,0.05,Wunderground v.1.15,2013-06-09 20:04:00,
2013-06-09 15:10:00,79.8,58.9,29.79,West,262,5.0,13.0,49,0.00,,,0.05,Wunderground v.1.15,2013-06-09 20:10:00,
2013-06-09 15:15:00,79.7,60.0,29.79,WNW,290,6.0,13.0,51,0.00,,,0.05,Wunderground v.1.15,2013-06-09 20:15:00,
2013-06-09 15:20:00,79.9,59.6,29.78,WSW,250,5.0,5.0,50,0.00,,,0.05,Wunderground v.1.15,2013-06-09 20:20:00,
2013-06-09 15:25:00,80.7,59.8,29.78,NNE,12,4.0,8.0,49,0.00,,,0.05,Wunderground v.1.15,2013-06-09 20:25:00,
2013-06-09 15:31:00,81.6,60.0,29.78,WNW,287,3.0,11.0,48,0.00,,,0.05,Wunderground v.1.15,2013-06-09 20:31:00,
2013-06-09 15:36:00,81.3,56.7,29.78,WNW,295,5.0,11.0,43,0.00,,,0.05,Wunderground v.1.15,2013-06-09 20:36:00,
2013-06-09 15:41:00,80.8,56.2,29.79,North,5,6.0,8.0,43,0.00,,,0.05,Wunderground v.1.15,2013-06-09 20:41:00,
2013-06-09 15:47:00,80.8,58.1,29.79,WSW,239,5.0,8.0,46,0.00,,,0.05,Wunderground v.1.15,2013-06-09 20:47:00,
2013-06-09 15:52:00,81.3,57.9,29.79,NNW,330,3.0,7.0,45,0.00,,,0.05,Wunderground v.1.15,2013-06-09 20:52:00,
2013-06-09 15:58:00,81.2,59.1,29.79,North,351,5.0,9.0,47,0.00,,,0.05,Wunderground v.1.15,2013-06-09 20:58:00,
2013-06-09 16:03:00,80.8,58.1,29.78,WNW,291,5.0,7.0,46,0.00,,,0.05,Wunderground v.1.15,2013-06-09 21:03:00,
2013-06-09 16:09:00,80.8,56.9,29.79,North,355,5.0,17.0,44,0.00,,,0.05,Wunderground v.1.15,2013-06-09 21:09:00,
2013-06-09 16:14:00,81.1,57.1,29.79,North,5,5.0,12.0,44,0.00,,,0.05,Wunderground v.1.15,2013-06-09 21:14:00,
2013-06-09 16:20:00,81.1,57.1,29.79,NW,323,5.0,6.0,44,0.00,,,0.05,Wunderground v.1.15,2013-06-09 21:20:00,
2013-06-09 16:25:00,81.2,59.6,29.78,NNW,333,4.0,6.0,48,0.00,,,0.05,Wunderground v.1.15,2013-06-09 21:25:00,
2013-06-09 16:31:00,80.7,57.4,29.78,SW,226,4.0,5.0,45,0.00,,,0.05,Wunderground v.1.15,2013-06-09 21:31:00,
2013-06-09 16:36:00,80.7,58.6,29.78,WNW,284,4.0,6.0,47,0.00,,,0.05,Wunderground v.1.15,2013-06-09 21:36:00,
2013-06-09 16:42:00,81.4,58.6,29.78,NNW,347,4.0,5.0,46,0.00,,,0.05,Wunderground v.1.15,2013-06-09 21:42:00,
2013-06-09 16:47:00,81.7,58.9,29.78,WNW,300,3.0,6.0,46,0.00,,,0.05,Wunderground v.1.15,2013-06-09 21:47:00,
2013-06-09 16:53:00,81.6,58.8,29.78,WNW,299,4.0,5.0,46,0.00,,,0.05,Wunderground v.1.15,2013-06-09 21:53:00,
2013-06-09 16:58:00,81.3,59.7,29.78,NW,313,4.0,7.0,48,0.00,,,0.05,Wunderground v.1.15,2013-06-09 21:58:00,
2013-06-09 17:04:00,81.7,60.1,29.78,NNW,339,3.0,8.0,48,0.00,,,0.05,Wunderground v.1.15,2013-06-09 22:04:00,
2013-06-09 17:10:00,81.3,59.1,29.78,WSW,244,3.0,9.0,47,0.00,,,0.05,Wunderground v.1.15,2013-06-09 22:10:00,
2013-06-09 17:15:00,81.3,57.9,29.78,NNW,344,4.0,9.0,45,0.00,,,0.05,Wunderground v.1.15,2013-06-09 22:15:00,
2013-06-09 17:21:00,81.3,59.1,29.78,North,355,4.0,6.0,47,0.00,,,0.05,Wunderground v.1.15,2013-06-09 22:21:00,
2013-06-09 17:27:00,81.5,58.7,29.78,NNW,338,3.0,6.0,46,0.00,,,0.05,Wunderground v.1.15,2013-06-09 22:27:00,
2013-06-09 17:33:00,81.4,58.6,29.78,West,273,4.0,6.0,46,0.00,,,0.05,Wunderground v.1.15,2013-06-09 22:33:00,
2013-06-09 17:38:00,81.4,58.6,29.78,NNW,339,4.0,6.0,46,0.00,,,0.05,Wunderground v.1.15,2013-06-09 22:38:00,
2013-06-09 17:44:00,81.5,59.3,29.78,NW,310,3.0,10.0,47,0.00,,,0.05,Wunderground v.1.15,2013-06-09 22:44:00,
2013-06-09 17:49:00,81.4,58.0,29.78,WNW,290,3.0,10.0,45,0.00,,,0.05,Wunderground v.1.15,2013-06-09 22:49:00,
2013-06-09 17:55:00,81.4,58.0,29.78,NW,323,2.0,3.0,45,0.00,,,0.05,Wunderground v.1.15,2013-06-09 22:55:00,
2013-06-09 18:01:00,81.4,58.6,29.78,WNW,301,2.0,3.0,46,0.00,,,0.05,Wunderground v.1.15,2013-06-09 23:01:00,
2013-06-09 18:06:00,81.5,58.1,29.78,NW,308,3.0,4.0,45,0.00,,,0.05,Wunderground v.1.15,2013-06-09 23:06:00,
2013-06-09 18:11:00,81.2,58.5,29.78,West,280,3.0,5.0,46,0.00,,,0.05,Wunderground v.1.15,2013-06-09 23:11:00,
2013-06-09 18:17:00,80.9,58.2,29.78,NW,322,3.0,5.0,46,0.00,,,0.05,Wunderground v.1.15,2013-06-09 23:17:00,
2013-06-09 18:23:00,80.5,59.0,29.78,ENE,57,2.0,3.0,48,0.00,,,0.05,Wunderground v.1.15,2013-06-09 23:23:00,
2013-06-09 18:28:00,80.0,59.1,29.78,WSW,240,2.0,8.0,49,0.00,,,0.05,Wunderground v.1.15,2013-06-09 23:28:00,
2013-06-09 18:34:00,79.0,57.6,29.78,West,277,3.0,4.0,48,0.00,,,0.05,Wunderground v.1.15,2013-06-09 23:34:00,
2013-06-09 18:39:00,78.7,57.4,29.78,WNW,292,4.0,5.0,48,0.00,,,0.05,Wunderground v.1.15,2013-06-09 23:39:00,
2013-06-09 18:44:00,78.8,57.4,29.78,NW,307,3.0,6.0,48,0.00,,,0.05,Wunderground v.1.15,2013-06-09 23:44:00,
2013-06-09 18:49:00,78.4,58.2,29.80,NE,40,3.0,7.0,50,0.00,,,0.05,Wunderground v.1.15,2013-06-09 23:49:00,
2013-06-09 18:55:00,75.5,58.7,29.79,WNW,293,5.0,7.0,56,0.00,,,0.05,Wunderground v.1.15,2013-06-09 23:55:00,
2013-06-09 19:00:00,73.7,59.4,29.80,NE,41,4.0,7.0,61,0.00,,,0.05,Wunderground v.1.15,2013-06-10 00:00:00,
2013-06-09 19:06:00,72.5,58.7,29.79,ENE,69,3.0,7.0,62,0.00,,,0.05,Wunderground v.1.15,2013-06-10 00:06:00,
2013-06-09 19:11:00,71.9,58.6,29.79,ENE,61,4.0,4.0,63,0.00,,,0.05,Wunderground v.1.15,2013-06-10 00:11:00,
2013-06-09 19:17:00,70.0,59.0,29.79,ENE,65,5.0,7.0,68,0.00,,,0.05,Wunderground v.1.15,2013-06-10 00:17:00,
2013-06-09 19:22:00,69.9,58.9,29.79,ENE,71,3.0,4.0,68,0.00,,,0.05,Wunderground v.1.15,2013-06-10 00:22:00,
2013-06-09 19:28:00,70.5,58.2,29.79,ENE,61,2.0,4.0,65,0.00,,,0.05,Wunderground v.1.15,2013-06-10 00:28:00,
2013-06-09 19:33:00,71.1,58.3,29.79,ENE,61,1.0,2.0,64,0.00,,,0.05,Wunderground v.1.15,2013-06-10 00:33:00,
2013-06-09 19:39:00,71.6,57.9,29.79,ENE,61,1.0,3.0,62,0.00,,,0.05,Wunderground v.1.15,2013-06-10 00:39:00,
2013-06-09 19:45:00,71.7,59.7,29.79,ENE,61,1.0,2.0,66,0.00,,,0.05,Wunderground v.1.15,2013-06-10 00:45:00,
2013-06-09 19:50:00,71.4,59.9,29.78,ENE,61,0.0,0.0,67,0.00,,,0.05,Wunderground v.1.15,2013-06-10 00:50:00,
2013-06-09 19:56:00,70.9,59.8,29.79,ESE,111,1.0,4.0,68,0.00,,,0.05,Wunderground v.1.15,2013-06-10 00:56:00,
2013-06-09 20:01:00,70.7,58.8,29.79,SE,127,2.0,3.0,66,0.00,,,0.05,Wunderground v.1.15,2013-06-10 01:01:00,
2013-06-09 20:06:00,70.7,58.4,29.79,SSE,153,2.0,4.0,65,0.00,,,0.05,Wunderground v.1.15,2013-06-10 01:06:00,
2013-06-09 20:12:00,70.1,58.6,29.78,SSE,152,3.0,4.0,67,0.00,,,0.05,Wunderground v.1.15,2013-06-10 01:12:00,
2013-06-09 20:17:00,70.1,58.2,29.78,SSE,149,4.0,7.0,66,0.00,,,0.05,Wunderground v.1.15,2013-06-10 01:17:00,
2013-06-09 20:22:00,70.5,57.7,29.77,SSE,148,6.0,6.0,64,0.00,,,0.05,Wunderground v.1.15,2013-06-10 01:22:00,
2013-06-09 20:28:00,70.7,57.5,29.77,SSE,160,4.0,6.0,63,0.00,,,0.05,Wunderground v.1.15,2013-06-10 01:28:00,
2013-06-09 20:34:00,70.6,57.4,29.77,SSE,159,3.0,4.0,63,0.00,,,0.05,Wunderground v.1.15,2013-06-10 01:34:00,
2013-06-09 20:39:00,70.4,57.2,29.77,SSE,157,2.0,4.0,63,0.00,,,0.05,Wunderground v.1.15,2013-06-10 01:39:00,
2013-06-09 20:45:00,69.9,57.2,29.78,SSE,160,2.0,4.0,64,0.00,,,0.05,Wunderground v.1.15,2013-06-10 01:45:00,
2013-06-09 20:50:00,69.6,57.3,29.78,SSE,153,4.0,6.0,65,0.00,,,0.05,Wunderground v.1.15,2013-06-10 01:50:00,
2013-06-09 20:55:00,69.5,57.2,29.78,SE,144,5.0,6.0,65,0.00,,,0.05,Wunderground v.1.15,2013-06-10 01:55:00,
2013-06-09 21:01:00,69.3,57.0,29.78,SE,145,3.0,3.0,65,0.00,,,0.05,Wunderground v.1.15,2013-06-10 02:01:00,
2013-06-09 21:06:00,69.4,56.7,29.78,SSE,162,2.0,4.0,64,0.00,,,0.05,Wunderground v.1.15,2013-06-10 02:06:00,
2013-06-09 21:12:00,69.5,57.2,29.78,SSE,162,3.0,3.0,65,0.00,,,0.05,Wunderground v.1.15,2013-06-10 02:12:00,
2013-06-09 21:17:00,69.7,57.4,29.78,SSE,163,4.0,5.0,65,0.00,,,0.05,Wunderground v.1.15,2013-06-10 02:17:00,
2013-06-09 21:23:00,69.9,57.6,29.78,SSE,165,5.0,6.0,65,0.00,,,0.05,Wunderground v.1.15,2013-06-10 02:23:00,
2013-06-09 21:28:00,69.7,57.8,29.78,SSE,163,5.0,6.0,66,0.00,,,0.05,Wunderground v.1.15,2013-06-10 02:28:00,
2013-06-09 21:34:00,69.6,57.7,29.79,SSE,159,4.0,5.0,66,0.00,,,0.05,Wunderground v.1.15,2013-06-10 02:34:00,
2013-06-09 21:40:00,70.1,57.8,29.79,SSE,159,4.0,5.0,65,0.00,,,0.05,Wunderground v.1.15,2013-06-10 02:40:00,
2013-06-09 21:45:00,70.2,57.9,29.79,SSE,159,4.0,5.0,65,0.00,,,0.05,Wunderground v.1.15,2013-06-10 02:45:00,
2013-06-09 21:51:00,70.3,57.5,29.79,SSE,166,5.0,5.0,64,0.00,,,0.05,Wunderground v.1.15,2013-06-10 02:51:00,
2013-06-09 21:56:00,70.3,57.5,29.80,SSE,161,4.0,5.0,64,0.00,,,0.05,Wunderground v.1.15,2013-06-10 02:56:00,
2013-06-09 22:01:00,70.3,58.0,29.80,SSE,161,4.0,4.0,65,0.00,,,0.05,Wunderground v.1.15,2013-06-10 03:01:00,
2013-06-09 22:07:00,70.3,58.0,29.80,SSE,159,3.0,4.0,65,0.00,,,0.05,Wunderground v.1.15,2013-06-10 03:07:00,
2013-06-09 22:12:00,70.4,58.1,29.80,SSE,160,3.0,4.0,65,0.00,,,0.05,Wunderground v.1.15,2013-06-10 03:12:00,
2013-06-09 22:17:00,71.1,58.3,29.81,SSE,161,3.0,4.0,64,0.00,,,0.05,Wunderground v.1.15,2013-06-10 03:17:00,
2013-06-09 22:22:00,70.9,58.1,29.80,SSE,161,3.0,4.0,64,0.00,,,0.05,Wunderground v.1.15,2013-06-10 03:22:00,
2013-06-09 22:27:00,70.5,57.7,29.81,SSE,161,3.0,4.0,64,0.00,,,0.05,Wunderground v.1.15,2013-06-10 03:27:00,
2013-06-09 22:33:00,70.5,57.7,29.81,SSE,166,3.0,5.0,64,0.00,,,0.05,Wunderground v.1.15,2013-06-10 03:33:00,
2013-06-09 22:38:00,70.8,58.0,29.81,South,188,4.0,6.0,64,0.00,,,0.05,Wunderground v.1.15,2013-06-10 03:38:00,
2013-06-09 22:43:00,70.7,57.9,29.81,South,182,4.0,4.0,64,0.00,,,0.05,Wunderground v.1.15,2013-06-10 03:43:00,
2013-06-09 22:49:00,70.6,58.3,29.81,SSE,166,4.0,5.0,65,0.00,,,0.05,Wunderground v.1.15,2013-06-10 03:49:00,
2013-06-09 22:55:00,70.4,58.1,29.81,SSE,165,4.0,5.0,65,0.00,,,0.05,Wunderground v.1.15,2013-06-10 03:55:00,
2013-06-09 23:00:00,70.7,57.9,29.81,SSE,168,4.0,4.0,64,0.00,,,0.05,Wunderground v.1.15,2013-06-10 04:00:00,
2013-06-09 23:01:00,70.6,58.3,29.82,South,169,4.0,4.0,65,0.00,,,0.05,Wunderground v.1.15,2013-06-10 04:01:00,
2013-06-09 23:02:00,70.6,58.3,29.81,South,169,4.0,4.0,65,0.00,,,0.05,Wunderground v.1.15,2013-06-10 04:02:00,
2013-06-09 23:06:00,70.5,57.7,29.81,South,171,3.0,4.0,64,0.00,,,0.05,Wunderground v.1.15,2013-06-10 04:06:00,
2013-06-09 23:07:00,70.5,57.7,29.81,South,171,2.0,4.0,64,0.00,,,0.05,Wunderground v.1.15,2013-06-10 04:07:00,
2013-06-09 23:11:00,70.7,57.9,29.81,South,171,2.0,2.0,64,0.00,,,0.05,Wunderground v.1.15,2013-06-10 04:11:00,
2013-06-09 23:17:00,70.9,58.1,29.81,South,171,3.0,3.0,64,0.00,,,0.05,Wunderground v.1.15,2013-06-10 04:17:00,
2013-06-09 23:22:00,70.9,58.1,29.81,South,171,3.0,4.0,64,0.00,,,0.05,Wunderground v.1.15,2013-06-10 04:22:00,
2013-06-09 23:27:00,70.6,57.8,29.81,South,171,3.0,5.0,64,0.00,,,0.05,Wunderground v.1.15,2013-06-10 04:27:00,
2013-06-09 23:33:00,70.6,57.8,29.81,South,172,3.0,4.0,64,0.00,,,0.05,Wunderground v.1.15,2013-06-10 04:33:00,
2013-06-09 23:38:00,70.6,57.8,29.81,South,178,4.0,5.0,64,0.00,,,0.05,Wunderground v.1.15,2013-06-10 04:38:00,
2013-06-09 23:44:00,70.3,58.0,29.81,South,178,3.0,4.0,65,0.00,,,0.05,Wunderground v.1.15,2013-06-10 04:44:00,
2013-06-09 23:50:00,70.4,57.6,29.81,South,175,3.0,5.0,64,0.00,,,0.05,Wunderground v.1.15,2013-06-10 04:50:00,
2013-06-09 23:55:00,70.6,57.8,29.81,SW,224,4.0,6.0,64,0.00,,,0.05,Wunderground v.1.15,2013-06-10 04:55:00,